RH
6 9 19 30 38 48 55 59 58 60 74 85 87 90 93 94 97 99 98 96 88 79 83 95 100 98 93 89 87 85 82 74 66 62 59 61 62 62 65 66 63 63 62 61 63 59 52 51 47 33 25 23 21 21 22 25 28 30 32 33 34 34 33
6 7 11 16 24 33 39 48 51 48 54 69 79 83 92 99 97 99 100 98 97 89 83 92 100 101 96 91 88 85 85 82 72 66 65 64 65 64 65 67 66 65 64 64 65 65 58 52 51 42 30 26 25 24 25 29 33 34 35 36 36 36 35
5 6 7 9 14 22 28 34 41 45 45 53 67 75 87 100 97 97 101 98 101 99 89 87 93 100 100 94 93 91 88 86 80 73 69 67 66 66 66 68 68 67 67 68 68 69 63 52 50 48 36 28 28 28 29 33 36 37 38 38 38 38 37
5 5 5 6 8 12 19 26 30 39 44 44 52 60 76 97 99 96 101 99 99 102 96 89 84 89 99 100 99 97 95 92 88 81 75 71 69 68 68 68 69 69 70 72 72 72 68 57 53 53 43 32 29 31 33 36 38 39 39 39 40 41 39
6 6 5 4 7 7 12 19 20 30 43 43 40 44 63 92 102 98 101 100 99 101 100 97 90 85 92 100 101 99 98 98 95 90 82 77 73 69 69 69 71 71 72 74 75 73 71 63 56 56 53 42 33 32 34 37 41 43 42 41 43 43 40
5 6 6 4 6 6 6 11 13 19 33 39 36 36 50 82 102 100 100 101 99 99 101 101 98 95 95 97 99 99 99 100 99 94 87 81 76 72 71 71 72 73 73 76 77 75 73 67 59 60 60 51 41 36 34 39 44 45 44 45 46 46 43
5 5 6 5 4 6 5 7 9 11 18 25 29 30 35 60 92 102 98 97 97 97 100 100 96 97 100 96 95 98 98 99 101 96 88 83 80 76 75 75 75 73 73 76 77 77 77 70 63 63 62 56 50 43 37 39 45 47 49 49 48 48 45
6 5 5 5 4 5 5 5 8 10 12 15 18 21 23 36 69 97 95 86 89 93 95 98 95 94 98 98 95 95 96 98 100 97 89 84 82 80 78 78 77 74 74 76 77 78 79 75 69 64 60 58 56 52 45 40 43 49 51 49 50 51 47
6 5 4 5 4 4 5 4 6 7 10 13 12 12 17 21 40 75 90 81 80 87 89 91 92 90 93 99 97 92 93 95 95 94 89 82 80 82 81 79 77 74 75 76 77 79 80 79 75 69 62 59 58 58 54 47 46 50 50 47 50 52 48
5 5 5 5 4 4 4 3 4 5 6 11 12 9 11 15 20 41 68 76 75 80 84 82 83 84 88 94 98 94 90 91 90 89 87 82 78 79 80 78 76 75 76 77 78 81 82 81 78 74 68 62 61 61 60 57 54 52 49 47 50 50 48
8 5 4 5 4 4 4 3 3 5 5 6 11 11 8 11 20 26 36 51 60 67 77 80 78 81 86 87 92 95 92 89 90 90 88 83 78 79 80 77 75 75 76 78 80 83 85 83 80 78 73 67 64 65 68 67 63 60 55 52 51 50 49
17 10 6 4 4 4 4 4 3 3 5 4 5 11 9 9 31 46 40 38 44 52 68 79 79 83 87 80 80 91 94 88 86 91 90 83 80 81 80 79 77 75 77 81 84 86 87 86 83 80 77 72 69 70 74 73 71 70 66 61 59 54 52
23 18 13 8 5 4 4 4 5 2 4 5 3 7 9 8 32 63 65 53 49 54 66 76 78 79 79 75 71 80 93 93 85 86 86 80 80 82 79 77 78 80 83 86 86 87 87 87 86 83 80 77 73 73 76 74 75 78 75 69 66 63 59
29 26 22 16 9 6 4 3 5 4 3 4 3 4 7 6 20 49 69 70 66 67 73 79 82 77 72 74 72 70 84 96 89 84 82 77 79 84 81 76 76 82 89 92 92 90 88 86 85 83 83 80 76 76 77 74 76 81 80 75 73 71 67
29 27 24 22 16 11 8 4 3 4 3 4 3 3 5 5 8 22 43 61 68 70 72 75 82 81 75 77 77 70 75 90 94 88 81 76 78 85 85 78 76 80 85 87 91 93 89 86 83 82 84 82 79 78 77 75 76 81 82 79 78 76 71
28 27 25 25 23 18 13 9 4 3 3 3 3 3 3 4 5 7 15 30 45 51 53 57 66 76 79 76 77 78 79 87 95 93 84 76 74 79 82 79 77 80 79 78 84 90 89 84 81 80 83 83 81 78 77 76 76 80 84 82 79 78 75
29 28 28 27 25 23 19 15 9 5 3 3 3 3 3 3 4 5 6 9 17 23 25 31 41 57 74 81 83 88 92 92 93 90 87 82 77 77 77 74 76 80 78 75 78 84 85 82 78 79 82 84 83 79 78 78 77 79 82 82 81 80 78
31 30 28 24 21 21 21 19 14 9 5 3 3 3 3 3 2 4 5 5 7 9 9 14 20 32 57 82 87 84 84 89 89 87 89 89 83 81 78 72 72 75 74 74 78 80 80 80 79 78 81 85 85 82 79 79 80 81 81 82 83 83 80
28 28 26 23 21 19 17 16 15 14 11 6 4 3 2 4 3 2 4 4 5 7 7 11 15 20 37 65 79 73 67 75 85 87 89 90 88 85 81 75 71 70 69 71 76 80 79 78 77 75 77 83 85 82 81 81 83 85 83 82 85 86 82
24 24 24 23 22 22 20 16 13 13 14 12 8 5 2 2 3 3 3 4 4 5 6 8 14 21 31 48 67 71 65 68 82 88 85 86 88 87 83 79 75 72 68 68 73 80 81 77 75 73 74 80 84 81 79 82 87 89 88 84 85 88 87
27 26 26 24 22 22 22 21 17 13 14 15 12 10 6 2 3 3 2 3 3 4 6 6 11 19 27 35 48 60 62 64 75 87 88 85 86 88 86 81 79 77 70 67 71 77 82 80 74 73 73 74 78 78 76 79 85 87 88 86 83 86 91
29 29 30 29 27 25 25 26 24 17 15 17 16 16 13 7 4 3 2 3 3 3 4 5 9 14 20 25 31 40 50 55 65 80 91 91 88 91 89 82 78 77 71 67 68 73 83 86 77 72 73 72 73 73 73 77 81 83 85 85 82 84 90
29 28 27 28 29 30 30 31 30 25 22 21 20 19 18 16 11 5 3 3 3 3 3 4 7 11 14 17 20 27 37 44 54 69 82 88 87 87 90 88 84 81 76 71 69 69 76 84 79 72 71 74 74 72 74 78 80 81 82 82 80 81 85
29 27 26 26 26 28 29 31 33 33 31 28 26 23 22 21 18 12 7 3 3 3 3 3 5 8 12 12 13 24 35 44 54 64 71 79 83 80 83 88 89 88 85 79 74 71 70 76 83 80 75 75 74 72 75 79 82 85 87 85 82 82 81
28 26 25 24 25 27 27 28 31 33 33 33 33 31 29 26 24 20 13 6 4 3 2 3 3 5 10 10 11 22 40 54 62 65 67 72 78 79 80 85 91 94 90 83 78 76 74 74 80 84 83 79 75 74 76 77 79 82 85 88 90 89 86
30 28 25 23 23 25 26 29 30 31 33 34 34 33 32 28 25 24 18 10 5 4 4 3 4 9 12 10 10 21 42 61 67 66 70 73 75 81 85 90 97 99 94 88 83 80 78 74 72 76 82 82 76 75 75 73 74 77 79 85 91 91 91
33 32 29 27 25 24 26 28 30 32 33 34 34 31 28 26 23 21 19 13 6 4 5 1 6 23 31 21 12 15 30 49 57 61 72 77 76 84 91 93 98 100 97 95 93 89 86 82 75 74 82 86 79 73 70 68 70 73 73 75 79 85 93
37 36 34 33 31 31 31 29 28 32 33 32 31 28 25 23 21 18 17 14 9 5 5 2 7 31 51 45 28 16 18 30 40 53 73 81 78 84 93 93 92 92 90 90 92 94 95 92 84 77 81 89 91 85 78 73 72 73 75 74 76 85 96
40 42 41 40 39 40 39 34 32 35 36 31 27 25 23 20 18 16 14 13 11 7 5 5 11 30 53 62 52 30 14 20 42 63 78 82 80 85 93 94 91 90 87 84 85 90 96 98 93 83 76 81 92 93 86 81 79 77 81 86 91 96 99
43 47 46 46 47 49 49 45 41 40 35 28 24 23 22 20 18 15 13 12 12 14 14 8 11 30 49 60 67 56 28 28 60 83 82 76 72 74 83 90 92 91 89 87 90 93 95 93 91 87 77 74 83 89 87 86 85 81 84 91 96 96 95
44 51 50 48 49 53 58 55 49 42 33 26 28 28 24 24 22 15 14 15 10 16 29 22 12 29 45 44 51 60 47 41 64 84 82 74 68 67 76 86 89 87 85 86 92 99 100 96 94 92 85 78 80 88 92 93 91 90 90 89 89 88 88
43 54 54 52 52 56 62 61 54 48 38 28 29 31 27 28 25 17 25 34 21 14 28 28 12 16 30 30 29 40 50 57 69 78 81 81 79 81 89 94 91 88 86 86 89 94 97 98 98 99 96 89 87 92 99 99 96 96 93 87 86 88 88
40 53 58 60 59 60 64 60 52 52 48 35 29 30 29 29 25 20 31 47 39 18 15 26 28 20 17 21 21 24 42 68 83 87 89 88 86 88 95 98 96 92 89 89 90 91 92 93 96 101 101 96 94 97 101 100 98 98 93 89 92 95 94
34 49 59 63 65 66 64 53 42 48 56 46 34 30 30 30 27 23 30 43 45 30 16 26 50 54 37 25 18 13 23 50 73 87 92 90 87 89 90 90 93 95 93 92 92 92 95 95 95 97 97 95 96 100 101 99 100 99 95 94 98 101 102
27 39 49 57 64 72 73 53 33 39 55 53 40 33 32 32 28 26 33 43 48 44 33 26 38 56 58 42 24 12 10 24 47 65 75 78 78 78 77 79 86 92 93 92 90 91 93 92 87 86 87 87 88 93 98 99 99 97 96 96 96 99 99
19 26 35 47 60 75 85 69 36 29 48 54 45 40 37 33 30 32 38 46 49 49 50 42 30 35 50 47 30 18 15 22 39 52 60 69 70 62 57 63 76 87 90 89 86 83 81 83 85 86 85 83 84 88 90 92 93 92 92 93 91 92 95
13 18 24 38 55 73 92 89 54 29 40 53 50 47 42 32 32 41 46 51 52 47 52 58 43 30 42 51 40 30 28 32 43 50 53 61 67 62 52 48 55 69 80 85 87 84 79 81 88 91 87 84 88 88 84 87 93 94 94 95 92 91 94
Wind_Speed
52 53 54 55 53 52 51 48 47 47 45 43 40 36 37 40 42 45 48 50 49 47 48 47 44 43 43 41 39 37 36 35 35 33 33 33 31 30 30 30 30 29 28 27 25 23 21 20 19 16 15 15 13 13 13 11 10 11 12 13 14 14 14
52 52 55 56 55 54 55 52 48 48 47 46 43 40 39 40 42 45 49 51 51 49 49 48 47 46 45 43 41 39 38 37 36 35 35 35 33 32 32 32 31 30 29 28 26 24 23 23 21 18 16 15 14 15 14 13 12 11 11 12 13 14 15
52 52 54 56 56 56 56 54 51 50 49 49 46 43 42 41 41 44 48 52 52 50 50 49 49 48 47 45 43 42 41 39 38 37 36 36 35 34 33 33 32 31 30 28 27 26 27 25 22 20 18 16 15 16 15 14 14 13 11 11 12 13 15
53 52 53 56 57 58 57 55 54 52 50 50 49 46 45 43 41 42 46 50 52 51 50 50 50 49 48 47 45 44 42 40 40 39 38 37 36 35 34 33 32 31 31 29 28 29 28 25 23 21 20 18 17 16 16 16 15 14 13 13 12 13 15
53 53 53 55 57 58 59 57 55 54 51 50 49 49 48 44 41 41 43 47 50 51 50 51 50 50 49 49 47 45 44 42 42 41 39 38 37 36 34 34 33 33 32 30 30 31 29 27 25 22 21 21 18 18 18 16 16 15 15 14 14 14 15
53 53 53 55 57 58 59 59 58 57 54 51 50 49 50 48 43 42 44 46 48 50 51 52 51 50 50 50 48 46 45 44 44 42 40 39 38 37 36 36 35 34 33 31 31 31 29 28 25 22 23 23 19 19 19 17 16 16 15 16 16 16 17
54 54 53 54 56 58 59 59 60 59 57 55 53 50 52 52 47 45 45 45 46 48 50 53 53 52 51 51 49 48 47 46 45 45 42 40 40 38 37 37 36 35 34 33 32 31 30 29 26 24 25 23 21 21 20 18 18 17 17 18 18 18 19
54 55 55 55 56 57 59 59 60 61 59 58 56 53 54 55 53 49 46 43 43 45 48 51 53 54 52 51 51 50 49 49 48 47 45 42 41 40 39 38 37 37 36 34 33 31 31 30 28 26 26 24 22 22 22 21 19 19 20 21 19 20 22
51 54 56 57 57 57 58 59 61 61 60 60 58 55 56 57 57 55 52 46 43 45 46 48 51 54 54 54 54 53 52 51 51 48 47 45 43 42 41 40 39 38 36 36 35 32 31 31 29 28 27 25 24 24 24 23 21 22 24 23 21 21 22
49 52 54 57 58 58 58 59 60 61 60 61 60 57 57 58 58 59 59 55 49 46 47 47 48 53 56 56 56 56 54 53 52 49 48 47 45 44 43 42 40 38 37 37 36 34 32 31 30 29 27 26 26 26 26 24 23 25 27 25 23 23 23
46 49 52 54 57 58 59 60 61 61 60 60 61 59 58 59 59 59 61 61 57 52 49 48 48 52 57 57 57 58 56 55 54 51 50 50 48 47 46 44 42 39 37 38 38 36 34 32 31 30 28 28 27 26 26 26 25 26 28 26 25 25 23
42 46 49 51 54 56 58 60 61 61 60 60 61 61 60 59 59 57 58 60 60 57 53 51 49 50 54 56 58 60 59 56 55 53 52 52 50 49 47 45 43 41 39 39 40 39 36 34 32 31 30 29 29 27 27 27 25 25 28 27 26 26 25
38 41 44 48 50 52 55 58 61 62 61 60 60 62 62 61 60 57 55 57 58 57 55 53 49 48 50 54 57 60 61 59 56 54 52 52 51 50 48 47 45 43 41 41 40 40 38 36 34 33 32 30 29 28 29 28 25 24 28 27 26 27 26
36 37 40 43 46 49 52 55 59 62 62 61 60 62 63 63 62 59 56 54 54 54 54 53 51 48 48 52 57 59 61 62 59 55 53 53 52 51 50 48 46 44 43 42 41 41 39 37 36 35 33 31 30 30 30 29 26 26 28 27 26 27 27
37 37 37 39 42 45 49 52 56 60 62 61 61 62 63 64 64 63 61 59 56 54 53 52 52 51 48 49 55 59 61 63 61 57 56 54 53 52 52 50 48 46 45 42 40 40 40 38 37 35 34 33 31 31 32 31 29 27 27 27 27 27 27
38 38 38 39 40 42 44 47 52 57 60 61 61 62 64 65 65 65 65 65 64 61 58 55 53 52 50 48 52 55 58 62 62 60 59 56 53 53 52 51 50 48 47 43 40 39 40 40 37 35 35 34 32 32 33 33 31 28 28 28 28 27 27
37 38 40 40 40 40 41 43 47 52 57 59 60 62 64 65 65 66 66 68 68 67 66 62 58 54 50 48 49 52 54 58 61 60 59 57 54 53 53 52 52 51 49 45 41 40 41 40 38 36 36 35 34 34 34 34 33 30 30 30 28 28 28
35 36 39 41 41 40 40 41 42 46 52 56 59 60 62 64 66 66 66 67 69 69 67 66 63 60 55 50 49 49 51 55 59 60 60 59 57 55 54 54 54 53 51 48 44 41 42 42 40 38 38 37 36 35 35 36 34 33 32 31 30 30 29
36 36 37 39 41 42 41 41 40 41 46 52 57 60 61 63 65 66 67 67 68 68 67 65 63 62 60 56 53 51 50 51 55 60 63 63 60 57 55 55 55 55 54 51 47 44 44 43 42 41 40 40 39 38 37 37 36 36 35 33 33 33 31
36 38 39 39 40 41 42 42 42 41 43 47 52 58 61 63 64 66 67 68 68 68 67 65 63 62 63 63 61 60 55 50 51 56 61 63 61 58 57 57 57 57 56 54 49 46 46 45 45 44 43 42 42 41 40 39 39 39 38 36 35 35 34
32 34 36 39 40 40 40 41 42 42 44 44 46 51 57 62 65 66 68 69 69 68 67 66 64 64 65 66 66 66 62 55 51 51 55 60 61 60 60 59 58 59 59 57 52 49 48 48 48 47 46 45 45 45 43 41 41 41 41 39 37 36 36
29 30 31 33 36 38 39 40 41 42 43 44 45 47 51 57 63 66 68 69 69 69 68 67 66 65 66 67 67 67 64 59 55 52 52 55 58 60 62 63 61 60 61 60 56 52 51 51 51 49 47 48 49 48 46 44 43 43 43 42 40 38 38
25 27 29 30 32 33 35 37 39 41 42 43 45 46 48 52 57 63 67 69 70 70 70 68 67 67 67 67 67 65 62 59 59 58 55 53 54 57 60 64 65 63 63 63 60 56 54 52 52 51 49 50 51 50 49 47 45 44 44 44 42 41 41
23 24 27 29 31 32 34 35 37 40 43 45 46 47 49 51 53 58 64 69 70 71 71 69 68 68 68 68 67 65 61 59 60 61 59 54 53 55 57 62 66 66 65 66 63 59 56 54 53 52 52 52 52 52 50 48 46 45 45 45 44 44 43
25 25 25 28 31 33 36 38 39 42 45 47 48 50 51 52 53 56 60 66 70 71 72 71 69 69 69 69 68 65 61 59 59 59 59 56 53 54 56 60 65 67 66 66 64 60 58 57 55 55 55 54 54 54 52 51 48 47 47 47 46 45 44
26 26 26 27 30 34 37 40 42 45 47 48 51 53 54 55 55 56 58 64 69 72 72 71 69 67 69 70 68 66 63 61 57 56 57 57 54 52 53 56 60 65 67 65 64 62 62 60 58 57 58 58 58 56 54 53 51 49 50 49 47 45 44
26 27 27 27 29 33 38 42 44 46 48 50 52 55 57 58 57 57 58 62 68 72 72 71 68 64 66 68 68 67 66 62 58 55 56 58 55 51 50 50 54 61 65 65 63 63 64 65 64 62 62 62 61 59 57 54 52 51 51 51 49 46 44
27 28 28 29 30 33 37 42 45 46 48 51 53 55 58 59 59 58 57 60 66 72 72 71 68 64 63 64 66 67 66 62 60 59 59 58 55 50 48 48 50 56 61 62 61 61 62 64 66 66 65 63 62 60 58 55 53 53 53 53 53 51 49
27 28 29 30 31 33 36 40 42 44 46 49 50 52 55 57 58 57 57 58 64 70 72 70 68 66 64 61 62 64 65 63 61 60 60 59 55 50 48 48 49 52 56 58 58 58 57 59 63 66 65 63 61 58 56 54 53 53 53 55 57 56 55
27 29 30 31 32 33 36 38 39 42 44 46 47 48 50 53 54 53 54 57 62 68 71 70 68 66 64 61 60 60 63 63 60 58 58 58 55 52 51 49 49 50 51 52 53 54 55 56 59 63 64 63 61 59 57 56 54 54 55 56 58 58 58
26 28 30 30 30 33 35 37 39 42 44 43 44 45 45 47 49 49 50 54 60 65 67 68 68 65 63 63 62 60 61 62 61 59 59 58 55 54 54 53 52 51 50 49 48 49 51 53 56 60 62 61 60 59 58 55 53 53 55 57 58 58 58
25 27 28 28 29 31 34 36 37 41 44 44 43 43 43 43 44 45 45 48 55 61 63 64 65 64 62 64 65 63 61 59 59 59 59 57 54 54 54 53 53 52 50 48 48 47 46 46 48 51 54 57 58 57 56 56 54 53 55 56 57 58 58
23 25 25 26 28 30 32 35 36 39 43 44 43 41 40 40 40 42 44 45 49 56 60 59 59 61 62 64 67 67 63 58 56 57 57 56 54 53 51 49 51 53 50 46 45 44 43 43 44 46 48 52 54 54 54 56 57 57 57 58 59 59 59
22 23 23 24 27 28 30 31 33 36 40 42 42 40 38 37 37 39 44 44 44 51 58 57 53 54 57 61 65 68 66 61 57 57 56 54 54 53 48 44 45 49 51 49 44 42 41 41 42 45 47 48 51 53 53 54 56 57 58 59 60 61 61
20 21 21 23 25 27 28 28 29 33 36 38 39 38 36 35 34 36 41 43 42 46 53 56 53 49 50 55 60 65 67 63 60 60 58 55 54 55 52 47 41 40 43 47 47 45 43 43 43 44 46 48 50 52 53 54 56 58 58 58 59 61 62
20 20 20 21 23 26 28 26 24 28 33 34 35 35 34 33 32 34 39 42 43 43 44 48 51 49 47 50 55 60 63 63 61 61 59 54 51 52 54 54 49 42 38 39 43 45 46 47 47 46 47 50 52 53 54 57 59 59 58 57 57 58 59
20 20 20 20 20 24 27 25 21 23 29 32 32 32 32 31 31 34 36 39 42 42 38 37 43 45 42 45 50 55 58 59 60 60 58 54 50 50 52 55 56 52 44 39 40 44 47 48 49 48 48 50 53 54 55 57 59 58 57 56 54 54 54
Wind_Direction
242 242 244 244 245 245 246 247 246 242 239 239 240 240 240 241 242 242 240 239 240 237 235 233 232 232 232 230 227 224 224 225 228 230 233 237 240 243 247 251 255 258 260 263 264 264 264 262 258 254 250 248 247 247 247 244 249 263 278 292 302 306 308
243 241 242 244 244 245 245 246 247 246 243 242 242 240 240 242 243 244 243 239 239 239 236 234 232 231 233 233 232 229 227 226 227 229 232 236 238 240 244 249 252 256 258 261 263 265 262 257 255 251 249 249 249 248 247 246 249 258 269 282 292 298 302
245 242 242 243 244 245 245 245 245 246 246 244 242 240 242 244 243 243 241 237 236 237 235 233 232 231 233 234 234 232 230 229 229 230 231 235 237 239 242 247 250 253 257 259 262 262 258 255 254 251 246 244 244 247 250 251 254 261 268 274 281 289 297
248 244 242 243 243 244 244 244 243 245 247 245 242 241 242 245 245 241 237 234 234 235 233 232 232 232 232 232 233 234 233 231 231 230 231 233 236 239 242 246 249 251 253 256 259 259 257 257 256 253 249 245 242 245 248 251 258 266 270 272 275 282 292
249 246 243 243 243 244 244 243 242 242 244 244 242 240 240 244 244 239 235 233 234 236 235 231 231 232 231 231 232 234 235 234 232 231 231 233 236 238 240 244 246 248 251 253 256 257 256 256 256 258 256 251 245 245 247 250 256 264 269 272 274 280 289
248 248 245 243 243 244 244 244 243 241 241 242 242 239 238 240 241 236 233 234 235 238 237 233 231 232 232 232 232 234 235 234 233 233 232 233 236 237 238 242 244 247 250 252 255 257 256 254 255 259 259 256 252 250 250 249 253 258 263 267 271 280 286
247 247 246 244 243 243 243 244 244 243 241 241 241 240 238 238 238 234 232 235 238 238 237 234 233 232 232 232 233 234 234 234 233 235 235 234 236 237 238 241 244 247 249 252 254 257 256 254 254 257 259 260 258 256 253 251 251 254 256 260 268 278 283
248 246 245 244 243 242 243 242 243 244 242 241 240 239 239 238 236 234 233 235 239 240 238 236 236 235 235 234 233 233 234 234 235 237 238 237 236 237 238 240 243 246 248 251 254 255 256 254 254 255 257 260 260 259 257 255 254 254 255 258 264 273 281
250 248 245 244 242 242 242 241 242 243 242 241 240 238 238 239 237 236 235 236 240 241 239 239 239 239 238 236 235 234 234 236 238 238 240 239 238 237 238 239 242 244 247 251 253 254 256 255 254 254 256 258 259 259 259 258 257 256 257 259 263 270 277
250 249 247 245 243 242 241 240 241 242 241 241 240 238 237 238 239 238 238 238 239 240 240 240 242 242 241 239 237 235 235 237 239 239 239 239 239 238 238 239 240 242 245 250 252 254 255 256 255 255 256 258 259 259 261 260 258 258 260 262 264 268 273
250 249 248 247 246 244 242 240 240 241 240 240 240 239 237 238 239 239 240 241 241 240 240 241 242 243 242 242 240 237 236 237 239 239 238 237 237 238 238 238 239 240 242 247 252 254 255 255 256 256 256 258 259 261 263 262 259 260 263 265 266 267 269
253 251 249 247 246 245 244 242 240 240 240 239 239 239 238 237 238 238 239 240 240 239 239 240 242 243 243 243 242 238 236 237 239 239 238 237 236 237 238 238 239 238 239 243 249 253 254 254 255 256 256 257 259 261 263 263 262 263 265 265 267 269 269
257 254 252 249 247 245 244 244 242 241 240 239 238 238 238 236 236 237 237 237 236 236 237 238 240 243 243 243 243 240 237 236 237 238 239 238 238 238 239 239 239 238 237 240 245 250 252 253 253 254 256 257 259 261 262 264 264 264 265 266 267 269 270
259 256 254 251 249 246 243 242 242 242 242 240 238 237 238 237 235 235 235 235 234 235 236 237 239 243 245 243 243 241 237 236 235 236 238 238 238 240 241 241 240 239 238 239 242 246 249 251 251 253 254 256 257 260 262 265 265 263 265 268 268 269 269
261 259 257 254 251 248 244 241 240 241 242 241 239 237 237 237 236 234 235 235 236 237 238 239 241 244 246 246 243 239 235 235 235 235 236 236 236 238 242 243 243 242 241 240 240 244 247 248 248 250 252 254 255 258 261 264 265 265 267 269 268 268 270
261 260 259 257 254 251 248 243 240 239 240 241 240 238 237 237 236 235 235 236 237 239 240 242 242 244 246 246 241 236 234 234 235 235 235 236 235 237 240 242 243 244 244 243 242 243 244 244 245 246 249 251 253 256 260 263 265 267 268 267 267 268 269
261 259 257 256 255 254 251 248 243 239 238 239 240 239 238 237 237 236 236 236 238 239 241 242 243 244 246 244 237 235 236 238 238 237 237 237 236 237 239 240 241 243 244 245 244 242 241 241 242 243 246 249 250 253 258 261 264 265 266 266 266 267 267
263 260 257 255 255 255 252 250 247 242 238 236 237 238 238 238 237 237 236 237 238 240 241 242 242 243 243 240 235 235 238 241 241 241 240 238 237 237 238 239 241 242 244 244 243 242 239 238 239 240 242 245 247 250 254 258 261 262 263 265 265 264 263
267 263 260 257 256 256 254 252 250 246 241 237 235 235 235 236 237 237 237 237 238 239 240 240 240 240 239 237 235 236 240 244 244 241 238 237 237 238 238 239 240 242 244 243 242 241 239 237 237 238 239 242 245 247 249 252 256 259 259 261 262 262 261
270 266 263 261 260 258 257 254 251 248 245 241 237 234 233 233 235 235 236 236 237 238 239 238 237 237 236 235 236 237 240 244 245 241 237 236 238 239 238 238 239 241 243 243 242 240 240 239 238 239 239 240 242 244 246 248 252 255 256 256 257 259 260
275 271 266 261 260 259 258 256 252 249 247 246 242 239 235 232 232 233 234 235 235 236 237 237 236 235 234 234 236 239 240 240 242 241 238 238 240 241 239 238 238 239 241 242 241 239 238 239 239 239 240 241 242 243 244 245 248 251 253 253 253 255 257
279 275 270 263 258 257 257 255 252 249 247 247 246 245 241 237 233 232 232 233 234 234 235 235 234 234 234 235 237 239 240 239 239 240 239 239 242 243 241 240 239 239 240 241 240 237 236 238 239 240 240 242 243 244 244 244 245 247 250 251 251 252 253
285 277 272 266 260 257 255 253 251 249 248 249 249 249 247 244 239 235 232 232 232 233 234 234 233 233 234 235 237 239 240 238 238 238 239 241 243 244 243 241 240 238 239 240 240 238 235 236 238 240 241 242 244 246 246 245 245 247 249 250 251 251 251
292 283 276 270 264 258 253 250 250 250 250 251 252 252 250 248 245 240 235 232 231 231 232 232 232 232 233 235 237 238 238 237 237 237 238 241 244 245 246 245 241 236 236 238 239 239 238 236 237 240 242 243 245 246 248 248 248 249 250 251 251 252 253
293 287 283 277 270 263 257 251 248 247 247 248 249 250 249 248 247 244 240 234 230 230 231 231 231 232 232 234 235 236 236 236 237 238 238 241 246 248 250 249 242 233 232 235 236 238 239 237 237 239 241 243 244 245 246 248 248 249 250 251 252 253 255
293 287 285 282 277 271 266 260 255 250 247 245 244 245 246 246 245 244 241 236 231 228 229 229 229 231 233 233 234 235 235 235 237 239 239 240 247 251 251 249 241 232 230 233 235 237 239 239 238 237 238 240 242 243 244 245 246 248 250 251 252 253 254
296 289 287 285 280 274 269 266 263 256 250 245 243 243 243 243 243 241 240 236 231 228 227 227 227 229 232 233 233 234 235 236 238 241 241 241 245 250 249 245 240 233 231 233 236 238 241 242 240 237 236 237 238 239 241 242 244 246 248 251 252 252 251
301 294 292 289 284 276 271 268 265 259 251 245 242 242 242 242 241 239 237 235 230 227 226 225 224 226 229 232 233 234 235 237 239 241 240 239 242 247 248 243 239 235 234 236 240 244 245 243 241 240 240 238 237 237 238 241 244 246 248 249 251 250 248
307 301 298 295 288 281 276 272 266 258 251 246 243 243 243 243 242 239 235 232 229 227 225 223 222 223 225 228 231 233 233 235 238 239 238 238 240 244 245 243 239 236 235 239 243 246 247 245 242 242 243 242 241 240 240 242 246 248 250 250 249 248 248
311 309 305 300 292 285 279 273 264 254 248 245 243 244 246 246 245 240 233 229 226 225 224 223 221 222 223 224 227 230 230 231 236 239 239 239 241 243 244 244 241 238 239 241 244 245 246 245 243 241 240 241 242 241 241 241 243 246 247 248 249 249 249
313 313 311 305 297 288 282 275 263 251 244 242 243 245 247 248 247 241 232 228 226 224 224 223 222 222 222 222 224 227 228 229 232 236 238 240 241 242 242 243 242 240 241 243 245 246 245 244 244 240 238 239 242 242 241 241 242 245 247 248 248 249 250
312 314 313 311 305 295 286 278 265 251 243 240 241 245 247 249 248 240 231 230 228 224 222 223 223 222 222 222 223 225 227 228 230 234 238 239 240 240 241 242 241 240 242 245 247 249 248 248 247 242 239 240 243 243 244 244 243 245 248 250 252 252 254
307 312 314 313 311 304 292 281 267 252 244 241 241 244 246 248 246 238 229 229 228 225 223 223 223 221 221 223 224 224 226 228 230 234 238 238 238 239 240 243 243 240 241 244 247 248 250 252 251 246 243 244 245 245 247 248 247 248 251 253 255 256 257
300 309 315 313 312 310 300 287 270 254 245 243 243 244 246 247 244 236 229 226 225 225 224 224 223 222 221 223 225 224 225 228 230 234 237 237 235 235 237 242 245 242 241 242 245 247 249 249 249 249 248 249 250 250 250 252 253 253 254 255 256 256 256
295 304 313 314 314 314 307 294 275 256 245 243 244 245 246 246 240 232 228 225 223 225 226 225 225 225 223 223 225 225 225 226 229 234 238 239 238 236 238 240 243 245 245 244 244 247 249 248 249 251 251 251 252 251 250 252 254 255 255 256 256 255 254
295 301 310 315 318 319 313 300 280 258 245 241 242 243 244 242 233 226 225 225 223 225 227 227 227 228 227 226 226 226 225 225 227 232 237 241 241 240 240 241 242 247 250 247 245 246 248 248 248 250 252 252 252 252 252 252 252 253 255 256 256 256 257
298 300 306 311 318 323 319 308 286 258 244 241 241 242 242 236 226 221 223 224 224 224 225 228 228 225 226 229 229 229 228 227 228 230 234 238 239 239 239 240 243 246 249 248 246 245 246 247 248 249 251 252 251 253 256 253 251 253 255 256 257 258 259